Lid_Strength_Index
-1 -1 -1 -1 -1 -1 -1 -1 -1 -1 -1 -1 -1 -1 -1 -1 -1 0 4 3 2 -2 -0 4 4 4 4 5 6 6 7 8 8 9 8 7 7 7 6 6 6 5 6 4 1
-0 -0 -0 -1 -1 -1 -1 -1 -1 -1 -1 -1 -1 -1 -1 -1 2 4 0 -2 -2 -1 4 5 6 5 6 6 6 6 7 8 7 7 7 7 7 7 7 7 6 6 5 5 2
-0 -0 -0 -0 -0 -0 -0 -1 -1 -1 -1 -1 -1 -1 -1 -0 4 5 -1 -1 -2 0 3 4 5 5 7 6 7 8 8 9 8 7 7 7 8 7 7 8 6 6 5 5 3
-0 -0 0 0 0 -0 -0 -0 -0 -0 -0 -1 -1 -1 -1 2 10 3 -1 -1 -1 3 4 5 6 7 7 8 7 9 8 8 7 7 7 8 7 8 7 6 6 5 5 5 3
-1 -0 0 0 0 0 -0 -0 -0 -0 -0 -1 -1 -1 2 6 6 2 -0 0 3 4 5 6 6 7 8 7 8 8 8 8 7 7 7 8 8 7 8 5 6 7 7 5 4
-1 -0 -0 0 0 -0 -0 -0 -0 -0 -0 -1 -1 -1 4 9 2 3 3 4 4 4 5 6 6 6 7 8 8 8 8 8 7 7 7 8 8 8 6 6 7 7 6 6 5
1 1 -0 -0 0 -0 -0 -0 -0 -0 -0 -1 -1 2 6 7 2 3 4 4 4 5 5 5 5 6 6 8 7 8 9 8 8 7 8 7 9 9 6 7 7 7 6 6 6
1 1 2 0 -0 0 -0 -0 -0 -0 -0 -1 -1 3 7 3 2 4 4 4 4 4 4 5 4 6 6 7 7 8 8 10 8 8 8 8 10 7 8 8 7 6 6 6 6
1 1 1 2 1 0 0 -1 -0 -0 -0 -1 3 5 8 2 4 3 4 5 5 5 5 5 5 7 7 8 9 9 11 11 9 8 9 9 9 7 8 8 7 7 6 6 6
0 1 1 1 1 1 -0 0 -1 0 1 2 3 8 7 7 4 4 4 5 5 6 6 6 7 8 8 9 12 11 11 11 10 9 10 9 10 8 7 8 7 6 6 6 6
-0 0 1 1 1 1 1 5 6 7 4 8 8 9 7 5 4 4 4 5 6 6 8 8 9 10 8 8 10 10 11 11 10 10 10 9 9 8 7 7 7 7 6 6 6
1 0 0 1 1 0 2 5 6 4 7 5 6 6 6 4 6 5 4 6 7 9 9 9 11 8 9 9 10 10 11 11 9 10 10 10 10 8 8 7 7 6 6 6 5
2 2 1 1 1 1 2 4 2 4 7 7 6 6 6 5 7 6 5 7 8 9 9 10 9 9 9 11 11 10 11 11 11 11 10 11 11 9 8 8 7 7 6 6 6
2 2 2 1 2 2 3 2 2 4 10 9 9 7 6 5 8 5 5 6 8 9 9 9 9 10 10 11 10 12 10 10 11 12 13 11 15 11 9 9 9 7 6 6 6
2 2 1 0 2 3 3 2 2 4 19 9 10 6 8 8 8 7 6 7 9 9 9 10 10 10 11 10 9 11 10 10 11 11 12 12 14 12 11 11 9 7 6 6 5
1 1 1 1 2 1 2 2 4 12 19 11 9 10 10 10 10 8 7 6 7 9 9 10 9 9 9 10 9 10 10 11 11 11 15 12 13 13 11 10 9 8 7 6 6
1 1 2 2 3 -0 1 3 13 17 10 11 11 10 10 11 11 10 10 10 10 12 12 11 10 10 9 11 10 10 10 14 15 16 16 13 14 12 10 10 9 8 7 7 7
2 1 2 1 1 -0 2 9 17 13 12 10 10 11 12 11 12 11 11 12 10 11 12 13 14 10 9 9 10 10 10 13 18 16 15 15 16 12 9 9 8 8 8 7 8
1 2 2 1 1 0 6 15 15 11 9 10 10 11 12 11 12 12 12 12 10 10 13 13 13 10 10 9 8 11 13 10 13 17 15 14 12 10 10 10 9 9 8 7 7
2 3 3 0 -1 2 9 13 11 8 8 9 14 11 13 11 12 13 13 11 11 10 9 11 14 11 11 9 10 10 9 13 13 18 18 15 14 13 11 9 9 9 8 8 7
2 6 2 -0 -0 6 12 11 9 7 7 10 11 12 11 12 11 12 12 11 10 11 9 10 13 14 11 12 11 11 12 12 12 13 16 16 14 10 10 9 9 8 8 8 7
3 9 2 -0 8 7 10 8 7 8 6 8 9 10 11 10 11 11 12 11 9 9 12 10 12 14 13 11 11 11 11 11 14 15 14 14 14 10 9 9 9 8 8 8 8
6 6 2 2 11 10 8 8 7 8 8 9 9 8 8 11 13 10 10 8 7 8 10 10 12 17 15 13 13 13 12 11 11 13 15 16 13 10 10 9 9 8 8 8 8
6 10 6 5 5 8 9 9 10 6 7 7 8 8 10 11 10 12 11 8 7 8 8 8 12 14 16 13 11 14 13 12 12 15 14 14 12 10 9 9 8 8 7 8 8
6 9 7 10 9 8 8 9 10 10 7 7 8 9 10 12 11 11 10 10 9 8 8 9 14 13 12 11 11 11 12 12 13 12 14 13 12 11 9 9 8 7 7 7 7
8 8 8 9 8 9 9 9 10 9 8 9 10 8 9 11 10 11 10 10 10 8 9 8 14 12 14 11 11 13 11 11 12 11 12 11 11 8 8 7 8 8 7 7 7
5 5 7 9 9 9 9 9 9 8 7 7 8 9 10 9 7 7 7 7 9 10 12 13 13 15 17 13 13 17 13 12 11 10 10 13 10 7 8 8 8 7 7 8 7